Torna al catalogo

COSMOS 979

AttivoMilitareLEO
NORAD 10586·PAYLOAD·🇷🇺 Russia

Lanciato Jan 10, 1978 da Plesetsk Cosmodrome

Loading…

Prossimi Passaggi (prossime 24 ore)

TLE

AggiornatoSource: Space-Track

Epoca: Sep 14, 2026, 11:20 UTC

1 10586U 78005D   26257.47262779 -.00000029  00000-0 -82013-4 0  9997
2 10586  74.0297  58.8356 0017034 196.5862 193.0057 12.53501959218352

Traccia COSMOS 979 in tempo reale con AllMySat

Download on the App Store